| time (UTC) | temp C | wind direction | speed KPH | gust KPH | rain 1hr cm | rain 24hr cm | rain mn cm | humidity % | barometer mb |
| 20260507023633 | 14 | 68 | 0.0 | 3.2 | 0.00 | 0.00 | 0.00 | 77 | 1013.8 |
| 20260507022611 | 14 | 68 | 0.0 | 3.2 | 0.00 | 0.00 | 0.00 | 77 | 1013.8 |
| 20260507021548 | 14 | 0.0 | 0.0 | 0.00 | 0.00 | 0.00 | 77 | 1013.7 | |
| 20260507020605 | 13 | 0.0 | 0.0 | 0.00 | 0.00 | 0.00 | 78 | 1013.7 | |
| 20260507015542 | 14 | 0.0 | 0.0 | 0.00 | 0.00 | 0.00 | 78 | 1013.7 | |
| 20260507014600 | 13 | 45 | 0.0 | 3.2 | 0.00 | 0.00 | 0.00 | 81 | 1013.7 |
| 20260507013537 | 13 | 0.0 | 0.0 | 0.00 | 0.00 | 0.00 | 81 | 1013.7 | |
| 20260507012535 | 13 | 0.0 | 0.0 | 0.00 | 0.00 | 0.00 | 81 | 1013.7 | |
| 20260507011532 | 13 | 0.0 | 0.0 | 0.00 | 0.00 | 0.00 | 81 | 1013.8 | |
| 20260507010530 | 13 | 0.0 | 0.0 | 0.00 | 0.00 | 0.00 | 80 | 1013.8 | |
| 20260507005527 | 14 | 0.0 | 0.0 | 0.00 | 0.00 | 0.00 | 80 | 1013.9 | |
| 20260507004524 | 14 | 0 | 0.0 | 6.4 | 0.00 | 0.00 | 0.00 | 81 | 1013.9 |
| 20260507003522 | 13 | 0.0 | 0.0 | 0.00 | 0.00 | 0.00 | 83 | 1014.0 | |
| 20260507002519 | 13 | 19 | 1.6 | 3.2 | 0.00 | 0.00 | 0.00 | 85 | 1014.2 |
| 20260507001516 | 13 | 19 | 1.6 | 3.2 | 0.00 | 0.00 | 0.00 | 84 | 1014.1 |
| 20260507000614 | 13 | 0.0 | 0.0 | 0.00 | 0.00 | 0.00 | 83 | 1014.1 | |
| 20260506235611 | 14 | 0.0 | 0.0 | 0.00 | 0.00 | 0.00 | 83 | 1014.4 | |
| 20260506234609 | 14 | 0 | 0.0 | 3.2 | 0.00 | 0.00 | 0.00 | 82 | 1014.4 |
| 20260506233626 | 14 | 0 | 0.0 | 3.2 | 0.00 | 0.00 | 0.00 | 81 | 1014.4 |
| 20260506232604 | 14 | 0.0 | 0.0 | 0.00 | 0.00 | 0.00 | 82 | 1014.3 | |
| 20260506231601 | 14 | 0 | 0.0 | 3.2 | 0.00 | 0.00 | 0.00 | 82 | 1014.7 |
| 20260506230558 | 14 | 0.0 | 0.0 | 0.00 | 0.00 | 0.00 | 83 | 1014.7 | |
| 20260506225555 | 14 | 0 | 0.0 | 3.2 | 0.00 | 0.00 | 0.00 | 83 | 1014.6 |
| 20260506224553 | 15 | 0 | 0.0 | 3.2 | 0.00 | 0.00 | 0.00 | 82 | 1014.6 |
| 20260506223550 | 15 | 0 | 1.6 | 3.2 | 0.00 | 0.00 | 0.00 | 82 | 1014.7 |
| 20260506222548 | 15 | 0 | 0.0 | 3.2 | 0.00 | 0.00 | 0.00 | 81 | 1014.8 |
| 20260506221545 | 14 | 0 | 1.6 | 3.2 | 0.00 | 0.00 | 0.00 | 83 | 1014.7 |
| 20260506220543 | 15 | 6 | 1.6 | 6.4 | 0.00 | 0.00 | 0.00 | 82 | 1014.9 |
| 20260506215540 | 15 | 0 | 0.0 | 3.2 | 0.00 | 0.00 | 0.00 | 81 | 1015.0 |
| 20260506214558 | 15 | 16 | 1.6 | 6.4 | 0.00 | 0.00 | 0.00 | 82 | 1015.0 |
| 20260506213535 | 15 | 20 | 1.6 | 6.4 | 0.00 | 0.00 | 0.00 | 82 | 1015.2 |
| 20260506212532 | 15 | 7 | 0.0 | 3.2 | 0.00 | 0.00 | 0.00 | 82 | 1015.0 |
| 20260506211529 | 15 | 357 | 1.6 | 3.2 | 0.00 | 0.00 | 0.00 | 82 | 1014.9 |
| 20260506210527 | 15 | 4 | 1.6 | 6.4 | 0.00 | 0.00 | 0.00 | 82 | 1014.8 |
| 20260506205524 | 15 | 10 | 1.6 | 6.4 | 0.00 | 0.00 | 0.00 | 82 | 1014.9 |
| 20260506204522 | 15 | 15 | 0.0 | 3.2 | 0.00 | 0.00 | 0.00 | 81 | 1014.7 |
| 20260506203519 | 15 | 311 | 1.6 | 6.4 | 0.00 | 0.00 | 0.00 | 81 | 1014.6 |
| 20260506202516 | 15 | 83 | 1.6 | 6.4 | 0.00 | 0.00 | 0.00 | 81 | 1014.3 |
| 20260506201634 | 15 | 349 | 1.6 | 6.4 | 0.00 | 0.00 | 0.00 | 81 | 1014.3 |
| 20260506200612 | 15 | 139 | 1.6 | 3.2 | 0.00 | 0.00 | 0.00 | 81 | 1014.2 |
| 20260506195609 | 15 | 158 | 1.6 | 6.4 | 0.00 | 0.00 | 0.00 | 81 | 1014.0 |
| 20260506194606 | 15 | 63 | 1.6 | 3.2 | 0.00 | 0.00 | 0.00 | 81 | 1013.9 |
| 20260506193604 | 15 | 187 | 0.0 | 3.2 | 0.00 | 0.00 | 0.00 | 80 | 1013.8 |
| 20260506192601 | 15 | 208 | 3.2 | 6.4 | 0.00 | 0.00 | 0.00 | 80 | 1013.6 |
| 20260506191618 | 16 | 137 | 3.2 | 6.4 | 0.00 | 0.00 | 0.00 | 81 | 1013.6 |
| 20260506190616 | 16 | 312 | 1.6 | 6.4 | 0.00 | 0.00 | 0.00 | 80 | 1013.5 |
| 20260506185553 | 16 | 0 | 0.0 | 3.2 | 0.00 | 0.00 | 0.00 | 80 | 1013.4 |
| 20260506184551 | 16 | 116 | 3.2 | 6.4 | 0.00 | 0.00 | 0.00 | 79 | 1013.4 |
| 20260506183548 | 16 | 137 | 1.6 | 3.2 | 0.00 | 0.00 | 0.00 | 78 | 1013.4 |
| 20260506182545 | 16 | 143 | 3.2 | 9.7 | 0.00 | 0.00 | 0.00 | 78 | 1013.3 |
| 20260506181543 | 16 | 136 | 3.2 | 9.7 | 0.00 | 0.00 | 0.00 | 78 | 1013.4 |
| 20260506180540 | 16 | 82 | 4.8 | 12.9 | 0.00 | 0.00 | 0.00 | 78 | 1013.3 |
| 20260506175538 | 17 | 309 | 1.6 | 6.4 | 0.00 | 0.00 | 0.00 | 78 | 1013.2 |
| 20260506174535 | 17 | 197 | 4.8 | 11.3 | 0.00 | 0.00 | 0.00 | 77 | 1013.3 |
| 20260506173552 | 17 | 139 | 3.2 | 6.4 | 0.00 | 0.00 | 0.00 | 75 | 1013.3 |
| 20260506172529 | 17 | 137 | 4.8 | 12.9 | 0.00 | 0.00 | 0.00 | 74 | 1013.2 |
| 20260506171527 | 18 | 101 | 6.4 | 20.9 | 0.00 | 0.00 | 0.00 | 72 | 1013.3 |
| 20260506170524 | 18 | 97 | 3.2 | 14.5 | 0.00 | 0.00 | 0.00 | 71 | 1013.3 |
| 20260506165522 | 19 | 33 | 4.8 | 12.9 | 0.00 | 0.00 | 0.00 | 70 | 1013.1 |
| 20260506164519 | 19 | 65 | 3.2 | 6.4 | 0.00 | 0.00 | 0.00 | 69 | 1013.2 |
| 20260506163516 | 19 | 32 | 4.8 | 11.3 | 0.00 | 0.00 | 0.00 | 69 | 1013.2 |
| 20260506162614 | 20 | 233 | 4.8 | 11.3 | 0.00 | 0.00 | 0.00 | 67 | 1013.2 |
| 20260506161651 | 20 | 324 | 3.2 | 11.3 | 0.00 | 0.00 | 0.00 | 66 | 1013.0 |
| 20260506160609 | 20 | 23 | 3.2 | 9.7 | 0.00 | 0.00 | 0.00 | 64 | 1013.0 |
| 20260506155606 | 20 | 22 | 4.8 | 14.5 | 0.00 | 0.00 | 0.00 | 67 | 1013.0 |
| 20260506154604 | 19 | 100 | 4.8 | 12.9 | 0.00 | 0.00 | 0.00 | 67 | 1013.0 |
| 20260506153741 | 18 | 119 | 4.8 | 9.7 | 0.00 | 0.00 | 0.00 | 69 | 1013.0 |
| 20260506152559 | 20 | 20 | 4.8 | 11.3 | 0.00 | 0.00 | 0.00 | 66 | 1013.0 |
| 20260506151556 | 19 | 354 | 4.8 | 12.9 | 0.00 | 0.00 | 0.00 | 67 | 1012.9 |
| 20260506150634 | 20 | 5 | 6.4 | 17.7 | 0.00 | 0.00 | 0.00 | 65 | 1012.9 |
| 20260506145551 | 19 | 333 | 4.8 | 17.7 | 0.00 | 0.00 | 0.00 | 69 | 1013.0 |
| 20260506144548 | 19 | 296 | 4.8 | 11.3 | 0.00 | 0.00 | 0.00 | 70 | 1013.2 |
| 20260506143545 | 18 | 350 | 4.8 | 12.9 | 0.00 | 0.00 | 0.00 | 70 | 1013.3 |
| 20260506142543 | 19 | 356 | 4.8 | 14.5 | 0.00 | 0.00 | 0.00 | 69 | 1013.2 |
| 20260506141540 | 19 | 43 | 4.8 | 12.9 | 0.00 | 0.00 | 0.00 | 68 | 1013.3 |
| 20260506140538 | 20 | 331 | 6.4 | 14.5 | 0.00 | 0.00 | 0.00 | 67 | 1013.3 |
| 20260506135535 | 21 | 330 | 4.8 | 14.5 | 0.00 | 0.00 | 0.00 | 64 | 1013.2 |
| 20260506134532 | 21 | 329 | 6.4 | 17.7 | 0.00 | 0.00 | 0.00 | 64 | 1013.2 |
| 20260506133530 | 21 | 336 | 6.4 | 17.7 | 0.00 | 0.00 | 0.00 | 64 | 1013.3 |
| 20260506132527 | 21 | 7 | 6.4 | 12.9 | 0.00 | 0.00 | 0.00 | 64 | 1013.4 |
| 20260506131524 | 21 | 271 | 6.4 | 17.7 | 0.00 | 0.00 | 0.00 | 63 | 1013.4 |
| 20260506130522 | 21 | 322 | 6.4 | 17.7 | 0.00 | 0.00 | 0.00 | 63 | 1013.5 |
| 20260506125519 | 21 | 259 | 8.0 | 20.9 | 0.00 | 0.00 | 0.00 | 63 | 1013.6 |
| 20260506124517 | 21 | 352 | 8.0 | 17.7 | 0.00 | 0.00 | 0.00 | 61 | 1013.6 |
| 20260506123614 | 21 | 318 | 6.4 | 12.9 | 0.00 | 0.00 | 0.00 | 62 | 1013.6 |
| 20260506122632 | 21 | 354 | 6.4 | 17.7 | 0.00 | 0.00 | 0.00 | 63 | 1013.6 |
| 20260506121609 | 21 | 24 | 8.0 | 27.4 | 0.00 | 0.00 | 0.00 | 64 | 1013.5 |
| 20260506120607 | 21 | 186 | 4.8 | 17.7 | 0.00 | 0.00 | 0.00 | 64 | 1013.8 |
| 20260506115604 | 20 | 20 | 6.4 | 14.5 | 0.00 | 0.00 | 0.00 | 65 | 1013.8 |
| 20260506114601 | 21 | 320 | 4.8 | 11.3 | 0.00 | 0.00 | 0.00 | 66 | 1013.9 |
| 20260506113559 | 20 | 335 | 6.4 | 12.9 | 0.00 | 0.00 | 0.00 | 67 | 1013.8 |
| 20260506112556 | 20 | 340 | 9.7 | 20.9 | 0.00 | 0.00 | 0.00 | 66 | 1013.9 |
| 20260506111553 | 21 | 294 | 6.4 | 14.5 | 0.00 | 0.00 | 0.00 | 67 | 1014.0 |
| 20260506110631 | 20 | 275 | 6.4 | 17.7 | 0.00 | 0.00 | 0.00 | 66 | 1014.0 |
| 20260506105548 | 20 | 275 | 6.4 | 17.7 | 0.00 | 0.00 | 0.00 | 67 | 1014.2 |
| 20260506104605 | 20 | 289 | 6.4 | 11.3 | 0.00 | 0.00 | 0.00 | 65 | 1014.1 |
| 20260506103543 | 21 | 336 | 4.8 | 11.3 | 0.00 | 0.00 | 0.00 | 64 | 1014.2 |
| 20260506102600 | 20 | 294 | 4.8 | 12.9 | 0.00 | 0.00 | 0.00 | 65 | 1014.1 |
| 20260506101558 | 20 | 296 | 4.8 | 11.3 | 0.00 | 0.00 | 0.00 | 65 | 1014.2 |
| 20260506100535 | 21 | 195 | 4.8 | 12.9 | 0.00 | 0.00 | 0.00 | 63 | 1014.1 |
| 20260506095532 | 21 | 294 | 3.2 | 6.4 | 0.00 | 0.00 | 0.00 | 61 | 1014.1 |
| 20260506094550 | 21 | 248 | 4.8 | 11.3 | 0.00 | 0.00 | 0.00 | 61 | 1014.1 |
| 20260506093527 | 20 | 271 | 3.2 | 6.4 | 0.00 | 0.00 | 0.00 | 63 | 1014.0 |
| 20260506092524 | 20 | 235 | 3.2 | 9.7 | 0.00 | 0.00 | 0.00 | 63 | 1014.1 |
| 20260506091522 | 20 | 238 | 3.2 | 11.3 | 0.00 | 0.00 | 0.00 | 65 | 1013.8 |
| 20260506090519 | 20 | 189 | 4.8 | 9.7 | 0.00 | 0.00 | 0.00 | 66 | 1013.8 |
| 20260506085516 | 20 | 293 | 4.8 | 14.5 | 0.00 | 0.00 | 0.00 | 66 | 1013.7 |
| 20260506084614 | 19 | 239 | 1.6 | 6.4 | 0.00 | 0.00 | 0.00 | 69 | 1013.9 |
| 20260506083611 | 19 | 149 | 1.6 | 6.4 | 0.00 | 0.00 | 0.00 | 70 | 1013.8 |
| 20260506082609 | 19 | 248 | 1.6 | 6.4 | 0.00 | 0.00 | 0.00 | 68 | 1013.8 |
| 20260506081606 | 18 | 349 | 1.6 | 3.2 | 0.00 | 0.00 | 0.00 | 71 | 1013.7 |
| 20260506080604 | 18 | 180 | 0.0 | 3.2 | 0.00 | 0.00 | 0.00 | 72 | 1013.7 |
| 20260506072553 | 17 | 286 | 0.0 | 6.4 | 0.00 | 0.00 | 0.00 | 73 | 1013.8 |
| 20260506071550 | 17 | 0.0 | 0.0 | 0.00 | 0.00 | 0.00 | 74 | 1013.8 | |
| 20260506070548 | 17 | 270 | 0.0 | 3.2 | 0.00 | 0.00 | 0.00 | 74 | 1013.8 |
| 20260506061535 | 15 | 0.0 | 0.0 | 0.00 | 0.00 | 0.00 | 88 | 1013.8 | |
| 20260506060532 | 14 | 0.0 | 0.0 | 0.00 | 0.00 | 0.00 | 88 | 1013.8 | |
| 20260506050517 | 13 | 0.0 | 3.2 | 0.00 | 0.00 | 0.00 | 84 | 1013.3 | |
| 20260506044611 | 13 | 23 | 0.0 | 3.2 | 0.00 | 0.00 | 0.00 | 93 | 1013.1 |
| 20260506043609 | 13 | 23 | 0.0 | 3.2 | 0.00 | 0.00 | 0.00 | 92 | 1013.2 |
| 20260506042606 | 15 | 0.0 | 0.0 | 0.00 | 0.00 | 0.00 | 92 | 1013.1 | |
| 20260506041624 | 15 | 0.0 | 3.2 | 0.00 | 0.00 | 0.00 | 92 | 1013.2 | |
| 20260506040621 | 15 | 23 | 0.0 | 3.2 | 0.00 | 0.00 | 0.00 | 92 | 1013.1 |
| 20260506035558 | 15 | 23 | 0.0 | 3.2 | 0.00 | 0.00 | 0.00 | 91 | 1013.3 |
| 20260506034556 | 15 | 31 | 1.6 | 3.2 | 0.00 | 0.00 | 0.00 | 90 | 1013.1 |
| 20260506033553 | 14 | 0.0 | 0.0 | 0.00 | 0.00 | 0.00 | 87 | 1013.2 | |
| 20260506032550 | 14 | 0.0 | 0.0 | 0.00 | 0.00 | 0.00 | 83 | 1013.1 | |
| 20260506031548 | 14 | 0.0 | 3.2 | 0.00 | 0.00 | 0.00 | 82 | 1013.0 | |
| 20260506030545 | 13 | 0.0 | 0.0 | 0.00 | 0.00 | 0.00 | 79 | 1013.1 | |
| 20260506025542 | 13 | 0.0 | 0.0 | 0.00 | 0.00 | 0.00 | 79 | 1012.8 | |
| 20260506024600 | 13 | 23 | 0.0 | 3.2 | 0.00 | 0.00 | 0.00 | 79 | 1012.8 |